Location: Rochester
(43.1610°N, 77.6109°W)
Time: 00:41:18
(UTC-05:00)

CAS-4A - Pass Details

Date: 22 October 2021
Orbit: 529 x 539 km, 43.0° (Epoch: 30 November)

Event Time Altitude Azimuth Distance (km) Brightness Sun altitude
Rises 19:34:50 0° 279° (W) 2,688 ? -15.0°
Reaches altitude 10° 19:37:06 10° 277° (W) 1,795 ? -15.4°
Maximum altitude 19:41:10 68° 195° (SSW) 579 ? -16.2°
Enters shadow 19:43:04 30° 119° (ESE) 978 ? -16.5°
